Location: Observatoire
(46.1952°N, 5.3391°E)
Time: 01:26:45
(UTC+01:00)

Altair - Pass Details

Date: 19 February 2026
Orbit: 1502 x 1682 km, 47.2° (Epoch: 9 March)

Event Time Altitude Azimuth Distance (km) Brightness Sun altitude
Rises 11:48:44 0° 292° (WNW) 4,736 9.7 30.9°
Reaches altitude 10° 11:52:07 10° 284° (WNW) 3,775 9.4 31.0°
Maximum altitude 12:00:20 34° 224° (SW) 2,445 9.3 31.4°
Drops below altitude 10° 12:08:48 10° 165° (SSE) 3,882 11.2 31.8°
Sets 12:12:22 0° 156° (SSE) 4,886 11.2 31.9°
